Location: Black Creek
(40.9000°S, 175.5500°E)
Time: 07:43:27
(UTC+00:00)

CZ-4 R/B - Visible Passes

Search period start: 02 November 2024 00:00
Search period end: 12 November 2024 00:00
Orbit: 509 x 562 km, 97.6° (Epoch: 01 November)

Date Brightness Start Highest point End Pass type
(mag) Time Alt. Az. Time Alt. Az. Time Alt. Az.
02 Nov 1.3 08:38:51 10° SSE 08:42:56 82° ENE 08:45:41 20° N visible
03 Nov 1.3 08:30:10 10° SSE 08:34:13 64° E 08:37:00 19° N visible
03 Nov 4.5 10:06:51 10° SW 10:08:06 11° WSW 10:09:20 10° W visible
04 Nov 1.6 08:21:29 10° SSE 08:25:28 49° E 08:28:17 18° N visible
04 Nov 4.3 09:57:21 10° SSW 09:59:28 14° WSW 10:01:34 10° W visible
05 Nov 1.9 08:12:50 10° SSE 08:16:40 38° E 08:19:32 16° NNE visible
05 Nov 4.1 09:48:06 10° SSW 09:50:47 17° WSW 09:53:27 10° WNW visible
06 Nov 2.2 08:04:12 10° SSE 08:07:50 30° E 08:10:46 14° NNE visible
06 Nov 3.8 09:38:58 10° SSW 09:42:04 21° WSW 09:45:08 10° WNW visible
07 Nov 2.5 07:55:36 10° SE 07:58:57 24° E 08:01:58 12° NNE visible
07 Nov 3.5 09:29:53 10° SSW 09:33:18 26° WSW 09:36:41 10° NW visible
08 Nov 2.8 07:47:03 10° SE 07:50:02 19° E 07:53:00 10° NE visible
08 Nov 3.1 09:20:51 10° S 09:24:30 32° WSW 09:28:08 10° NW visible
09 Nov 3.1 07:38:36 10° SE 07:41:05 15° E 07:43:31 10° NE visible
09 Nov 2.7 09:11:49 10° S 09:15:40 40° WSW 09:19:28 10° NW visible
10 Nov 2.2 09:02:48 10° S 09:06:47 52° WSW 09:10:43 10° NNW visible
11 Nov 1.7 08:53:48 10° S 08:57:52 67° WSW 09:01:48 10° NNW visible
